Time,TemperatureF,DewpointF,PressureIn,WindDirection,WindDirectionDegrees,WindSpeedMPH,WindSpeedGustMPH,Humidity,HourlyPrecipIn,Conditions,Clouds,dailyrainin,SoftwareType,DateUTC
2013-12-05 00:13:00,59.0,56.0,29.60,SW,220,9.0,14.0,91,0.00,,,0.00,,2013-12-05 05:13:00,
2013-12-05 00:23:00,59.0,56.0,29.61,WSW,250,7.0,13.0,90,0.00,,,0.00,,2013-12-05 05:23:00,
2013-12-05 00:43:00,59.0,56.0,29.62,SW,230,9.0,15.0,90,0.00,,,0.00,,2013-12-05 05:43:00,
2013-12-05 00:53:00,59.0,56.0,29.62,SW,230,9.0,15.0,90,0.00,,,0.00,,2013-12-05 05:53:00,
2013-12-05 01:12:00,60.0,57.0,29.62,SW,226,10.0,17.0,89,0.00,,,0.00,,2013-12-05 06:12:00,
2013-12-05 01:22:00,60.0,57.0,29.62,SW,226,10.0,17.0,89,0.00,,,0.00,,2013-12-05 06:22:00,
2013-12-05 01:43:00,59.0,56.0,29.63,WSW,257,7.0,15.0,89,0.00,,,0.00,,2013-12-05 06:43:00,
2013-12-05 01:52:00,58.0,54.0,29.64,SW,224,6.0,17.0,88,0.00,,,0.00,,2013-12-05 06:52:00,
2013-12-05 02:12:00,57.0,53.0,29.64,WSW,240,8.0,14.0,86,0.00,,,0.00,,2013-12-05 07:12:00,
2013-12-05 02:22:00,56.0,52.0,29.65,WNW,292,9.0,15.0,86,0.00,,,0.00,,2013-12-05 07:22:00,
2013-12-05 02:42:00,55.0,52.0,29.66,ENE,58,7.0,16.0,88,0.00,,,0.00,,2013-12-05 07:42:00,
2013-12-05 02:52:00,52.0,47.0,30.60,West,275,2.0,9.0,84,0.00,,,0.00,,2013-12-05 07:52:00,
2013-12-05 03:11:00,49.0,45.0,29.69,SW,224,3.0,11.0,87,0.00,,,0.00,,2013-12-05 08:11:00,
2013-12-05 03:22:00,48.0,44.0,29.71,NW,308,5.0,14.0,86,0.00,,,0.00,,2013-12-05 08:22:00,
2013-12-05 03:42:00,47.0,42.0,29.71,WSW,248,5.0,-999.0,84,-99.99,,,-99.99,,2013-12-05 08:42:00,
2013-12-05 03:53:00,46.0,41.0,29.73,SW,223,2.0,11.0,83,0.00,,,0.00,,2013-12-05 08:53:00,
2013-12-05 04:22:00,45.0,40.0,29.74,WSW,247,6.0,12.0,83,0.00,,,0.00,,2013-12-05 09:22:00,
2013-12-05 04:43:00,45.0,40.0,29.75,SW,235,3.0,10.0,84,0.00,,,0.00,,2013-12-05 09:43:00,
2013-12-05 04:54:00,43.0,37.0,29.75,WSW,252,8.0,18.0,79,0.00,,,0.00,,2013-12-05 09:54:00,
2013-12-05 05:13:00,42.0,37.0,29.76,SW,232,4.0,13.0,81,0.00,,,0.00,,2013-12-05 10:13:00,
2013-12-05 05:23:00,41.0,37.0,29.76,West,270,4.0,12.0,84,0.00,,,0.00,,2013-12-05 10:23:00,
2013-12-05 05:43:00,40.0,36.0,29.77,WSW,247,8.0,15.0,84,0.00,,,0.00,,2013-12-05 10:43:00,
2013-12-05 05:53:00,40.0,36.0,29.78,WSW,256,4.0,13.0,85,0.00,,,0.00,,2013-12-05 10:53:00,
2013-12-05 06:12:00,40.0,36.0,29.79,WNW,288,2.0,9.0,86,0.00,,,0.00,,2013-12-05 11:12:00,
2013-12-05 06:22:00,39.0,35.0,29.80,WNW,282,1.0,9.0,87,0.00,,,0.00,,2013-12-05 11:22:00,
2013-12-05 06:42:00,39.0,35.0,29.79,WNW,302,1.0,7.0,86,0.00,,,0.00,,2013-12-05 11:42:00,
2013-12-05 06:53:00,37.0,33.0,29.81,WSW,243,5.0,12.0,85,0.00,,,0.00,,2013-12-05 11:53:00,
2013-12-05 07:12:00,37.0,33.0,29.81,WSW,255,6.0,12.0,86,0.00,,,0.00,,2013-12-05 12:12:00,
2013-12-05 07:22:00,36.0,33.0,29.81,SW,217,4.0,13.0,87,0.00,,,0.00,,2013-12-05 12:22:00,
2013-12-05 07:42:00,36.0,33.0,29.83,SW,234,2.0,8.0,87,0.00,,,0.00,,2013-12-05 12:42:00,
2013-12-05 07:52:00,36.0,32.0,29.84,SW,228,6.0,13.0,86,0.00,,,0.00,,2013-12-05 12:52:00,
2013-12-05 08:11:00,35.0,31.0,29.86,WNW,298,3.0,13.0,84,0.00,,,0.00,,2013-12-05 13:11:00,
2013-12-05 08:22:00,35.0,31.0,29.86,SSW,213,3.0,12.0,85,0.00,,,0.00,,2013-12-05 13:22:00,
2013-12-05 08:42:00,34.0,31.0,29.86,SW,236,4.0,10.0,87,0.00,,,0.00,,2013-12-05 13:42:00,
2013-12-05 08:52:00,34.0,30.0,29.88,West,265,4.0,11.0,86,0.00,,,0.00,,2013-12-05 13:52:00,
2013-12-05 09:12:00,33.0,29.0,29.89,WSW,239,5.0,13.0,85,0.00,,,0.00,,2013-12-05 14:12:00,
2013-12-05 09:22:00,33.0,30.0,29.91,WSW,243,3.0,11.0,87,0.00,,,0.00,,2013-12-05 14:22:00,
2013-12-05 09:42:00,33.0,29.0,29.91,SW,219,2.0,7.0,86,0.00,,,0.00,,2013-12-05 14:42:00,
2013-12-05 09:52:00,33.0,29.0,29.92,East,79,3.0,10.0,85,0.00,,,0.00,,2013-12-05 14:52:00,
2013-12-05 10:11:00,33.0,29.0,29.91,NE,55,1.0,12.0,86,0.00,,,0.00,,2013-12-05 15:11:00,
2013-12-05 10:22:00,33.0,29.0,29.93,West,280,5.0,10.0,84,0.00,,,0.00,,2013-12-05 15:22:00,
2013-12-05 10:43:00,33.0,28.0,29.93,SW,223,4.0,11.0,82,0.00,,,0.00,,2013-12-05 15:43:00,
2013-12-05 10:54:00,33.0,28.0,29.94,SW,225,3.0,11.0,82,0.00,,,0.00,,2013-12-05 15:54:00,
2013-12-05 11:13:00,33.0,28.0,29.95,ENE,64,4.0,11.0,81,0.00,,,0.00,,2013-12-05 16:13:00,
2013-12-05 11:23:00,32.0,27.0,29.95,West,269,4.0,12.0,82,0.00,,,0.00,,2013-12-05 16:23:00,
2013-12-05 11:43:00,33.0,28.0,29.96,West,259,4.0,10.0,81,0.00,,,0.00,,2013-12-05 16:43:00,
2013-12-05 11:53:00,33.0,28.0,29.96,NNE,26,4.0,12.0,80,0.00,,,0.00,,2013-12-05 16:53:00,
2013-12-05 12:12:00,33.0,28.0,29.96,SW,217,3.0,11.0,80,0.00,,,0.00,,2013-12-05 17:12:00,
2013-12-05 12:23:00,34.0,28.0,29.96,WSW,242,3.0,12.0,80,0.00,,,0.00,,2013-12-05 17:23:00,
2013-12-05 12:42:00,33.0,28.0,29.97,NNE,22,3.0,10.0,80,0.00,,,0.00,,2013-12-05 17:42:00,
2013-12-05 12:52:00,33.0,27.0,29.97,WNW,302,2.0,6.0,78,0.00,,,0.00,,2013-12-05 17:52:00,
2013-12-05 13:13:00,33.0,27.0,29.97,West,273,5.0,9.0,79,0.00,,,0.00,,2013-12-05 18:13:00,
2013-12-05 13:22:00,33.0,27.0,29.97,WSW,239,4.0,10.0,79,0.00,,,0.00,,2013-12-05 18:22:00,
2013-12-05 13:42:00,33.0,28.0,29.96,WNW,294,3.0,11.0,80,0.00,,,0.00,,2013-12-05 18:42:00,
2013-12-05 13:52:00,33.0,27.0,29.97,WSW,244,2.0,8.0,78,0.00,,,0.00,,2013-12-05 18:52:00,
2013-12-05 14:12:00,34.0,27.0,29.96,NW,317,1.0,9.0,76,0.00,,,0.00,,2013-12-05 19:12:00,
2013-12-05 14:22:00,34.0,27.0,29.96,NNW,332,3.0,9.0,75,0.00,,,0.00,,2013-12-05 19:22:00,
2013-12-05 14:42:00,34.0,27.0,29.97,West,259,2.0,5.0,75,0.00,,,0.00,,2013-12-05 19:42:00,
2013-12-05 14:52:00,33.0,26.0,29.98,NNW,333,1.0,7.0,76,0.00,,,0.00,,2013-12-05 19:52:00,
2013-12-05 15:11:00,34.0,27.0,29.98,North,355,1.0,4.0,76,0.00,,,0.00,,2013-12-05 20:11:00,
2013-12-05 15:22:00,33.0,27.0,29.99,NW,325,1.0,7.0,77,0.00,,,0.00,,2013-12-05 20:22:00,
2013-12-05 15:42:00,33.0,27.0,30.00,WSW,250,3.0,9.0,77,0.00,,,0.00,,2013-12-05 20:42:00,
2013-12-05 15:52:00,32.0,26.0,30.01,SSW,196,2.0,6.0,77,0.00,,,0.00,,2013-12-05 20:52:00,
2013-12-05 16:12:00,32.0,26.0,30.01,WSW,257,1.0,7.0,78,0.00,,,0.00,,2013-12-05 21:12:00,
2013-12-05 16:22:00,31.0,25.0,30.02,SW,222,2.0,8.0,77,0.00,,,0.00,,2013-12-05 21:22:00,
2013-12-05 16:44:00,31.0,25.0,30.04,WSW,257,3.0,8.0,79,0.00,,,0.00,,2013-12-05 21:44:00,
2013-12-05 16:53:00,31.0,26.0,31.00,West,260,5.0,8.0,81,0.00,,,0.00,,2013-12-05 21:53:00,
2013-12-05 17:13:00,30.0,25.0,30.06,SSW,212,4.0,9.0,80,0.00,,,0.00,,2013-12-05 22:13:00,
2013-12-05 17:24:00,30.0,25.0,30.06,WSW,250,2.0,7.0,80,0.00,,,0.00,,2013-12-05 22:24:00,
2013-12-05 17:42:00,29.0,24.0,30.06,West,260,2.0,7.0,81,0.00,,,0.00,,2013-12-05 22:42:00,
2013-12-05 17:52:00,29.0,24.0,30.06,SSW,211,3.0,8.0,80,0.00,,,0.00,,2013-12-05 22:52:00,
2013-12-05 18:12:00,29.0,24.0,31.00,WSW,255,0.0,6.0,80,0.00,,,0.00,,2013-12-05 23:12:00,
2013-12-05 18:22:00,29.0,24.0,30.05,WSW,240,4.0,7.0,81,0.00,,,0.00,,2013-12-05 23:22:00,
2013-12-05 18:43:00,29.0,24.0,30.07,SW,227,3.0,7.0,80,0.00,,,0.00,,2013-12-05 23:43:00,
2013-12-05 18:53:00,29.0,23.0,30.08,WSW,257,5.0,8.0,79,0.00,,,0.00,,2013-12-05 23:53:00,
2013-12-05 19:11:00,28.0,23.0,30.09,West,278,1.0,9.0,81,0.00,,,0.00,,2013-12-06 00:11:00,
2013-12-05 19:22:00,28.0,23.0,30.10,West,281,2.0,7.0,81,0.00,,,0.00,,2013-12-06 00:22:00,
2013-12-05 19:42:00,28.0,23.0,30.11,West,262,3.0,8.0,80,0.00,,,0.00,,2013-12-06 00:42:00,
2013-12-05 19:52:00,28.0,23.0,30.13,SW,229,3.0,7.0,80,0.00,,,0.00,,2013-12-06 00:52:00,
2013-12-05 20:11:00,28.0,22.0,30.11,SW,221,2.0,6.0,79,0.00,,,0.00,,2013-12-06 01:11:00,
2013-12-05 20:22:00,28.0,22.0,30.11,SW,221,2.0,6.0,79,0.00,,,0.00,,2013-12-06 01:22:00,
2013-12-05 20:42:00,28.0,23.0,30.11,WSW,250,2.0,8.0,80,0.00,,,0.00,,2013-12-06 01:42:00,
2013-12-05 20:52:00,28.0,23.0,30.11,WNW,302,0.0,6.0,80,0.00,,,0.00,,2013-12-06 01:52:00,
2013-12-05 21:11:00,28.0,22.0,30.13,SW,224,2.0,5.0,78,0.00,,,0.00,,2013-12-06 02:11:00,
2013-12-05 21:22:00,28.0,22.0,30.14,WNW,300,2.0,8.0,79,0.00,,,0.00,,2013-12-06 02:22:00,
2013-12-05 21:42:00,27.0,21.0,30.13,WSW,239,3.0,7.0,79,0.00,,,0.00,,2013-12-06 02:42:00,
2013-12-05 21:52:00,27.0,21.0,30.13,WSW,252,2.0,6.0,79,0.00,,,0.00,,2013-12-06 02:52:00,
2013-12-05 22:12:00,27.0,22.0,30.12,SW,227,327.0,327.0,80,-99.99,,,-99.99,,2013-12-06 03:12:00,
2013-12-05 22:22:00,27.0,22.0,30.16,SW,229,2.0,5.0,81,0.00,,,0.00,,2013-12-06 03:22:00,
2013-12-05 22:43:00,27.0,21.0,30.16,West,270,1.0,3.0,78,0.00,,,0.00,,2013-12-06 03:43:00,
2013-12-05 22:53:00,27.0,21.0,30.14,WNW,285,1.0,3.0,78,0.00,,,0.00,,2013-12-06 03:53:00,
2013-12-05 23:23:00,27.0,21.0,30.13,NNW,346,1.0,3.0,79,0.00,,,0.00,,2013-12-06 04:23:00,
2013-12-05 23:43:00,27.0,21.0,30.15,WNW,285,1.0,4.0,78,0.00,,,0.00,,2013-12-06 04:43:00,
2013-12-05 23:53:00,27.0,21.0,30.15,WNW,303,1.0,2.0,78,0.00,,,0.00,,2013-12-06 04:53:00,